Mazatlan Airport, Mexico

7:05 AM MDT on June 28, 2017 (GMT -0600)
Gen Rafael Buelna International

Weather History for MMMZ - June, 2013

Change the Weather History Date:

Saturday, June 8, 2013

  Actual Average Record
Temperature  
Mean Temperature 81 °F -  
Max Temperature 89 °F 86 °F 92 °F (2015)
Min Temperature 73 °F 72 °F 68 °F (1999)
Cooling Degree Days 16    
Growing Degree Days 31 (Base 50)    
Moisture  
Dew Point 66 °F    
Average Humidity 60    
Maximum Humidity 80    
Minimum Humidity 46    
Precipitation  
Precipitation 0.00 in - - ()
Sea Level Pressure  
Sea Level Pressure 29.83 in    
Wind  
Wind Speed 7 mph ()    
Max Wind Speed 15 mph    
Max Gust Speed -    
Visibility 9.8 miles    
Events      
Averages and records for this station are not official NWS values.
T = Trace of Precipitation, MM = Missing Value Source: Averaged Metar Reports

Daily Weather History Graph

Daily Weather History Graph

Search for Another Location

Airport or City:

Trip Planner

Search our weather history database for the weather conditions in past years. The results will help you decide how hot, cold, wet, or windy it might be!

Date:

Astronomy

Jun. 08, 2013 Rise Set
Actual Time 6:18 AM MDT 7:50 PM MDT
Civil Twilight 5:53 AM MDT 8:15 PM MDT
Nautical Twilight 5:23 AM MDT 8:45 PM MDT
Astronomical Twilight 4:51 AM MDT 9:16 PM MDT
Moon 6:22 AM MDT (6/8) 8:00 PM MDT (6/8)
Length of Visible Light 14h 21m
Length of Day
13h 31m
New Moon, 0% of the Moon is Illuminated
Jun 8
New Moon
Jun 16
First Quarter
Jun 23
Full
Jun 29
Last Quarter
Jul 8
New

Hourly Weather History & Observations

Time (MDT) Temp. Heat Index Dew Point Humidity Pressure Visibility Wind Dir Wind Speed Gust Speed Precip Events Conditions
12:40 AM 73.4 °F - 62.6 °F 69% 29.84 in 8.0 mi East 6.9 mph - N/A   Clear
1:40 AM 73.4 °F - 62.6 °F 69% 29.82 in 8.0 mi NNE 8.1 mph - N/A   Clear
2:41 AM 73.4 °F - 62.6 °F 69% 29.80 in 8.0 mi North 6.9 mph - N/A   Clear
3:00 AM 78 °F - 73 °F 80% 29.81 in - ENE 2.2 mph - -  
3:50 AM 75.2 °F - 64.4 °F 69% 29.80 in 8.0 mi North 5.8 mph - N/A   Scattered Clouds
4:40 AM 75.2 °F - 64.4 °F 69% 29.82 in 8.0 mi North 6.9 mph - N/A   Scattered Clouds
5:41 AM 75.2 °F - 64.4 °F 69% 29.81 in 8.0 mi North 6.9 mph - N/A   Mostly Cloudy
6:42 AM 75.2 °F - 64.4 °F 69% 29.84 in 8.0 mi NNE 6.9 mph - N/A   Overcast
7:44 AM 77.0 °F - 64.4 °F 65% 29.84 in 10.0 mi NNE 6.9 mph - N/A   Scattered Clouds
9:00 AM 85 °F - 73 °F 60% 29.87 in - SE 2.2 mph - -  
9:51 AM 82.4 °F 83.9 °F 64.4 °F 54% 29.86 in 11.0 mi South 6.9 mph - N/A   Scattered Clouds
10:40 AM 86.0 °F 88.2 °F 66.2 °F 51% 29.85 in 11.0 mi South 9.2 mph - N/A   Scattered Clouds
11:44 AM 86.0 °F 88.2 °F 66.2 °F 51% 29.85 in 12.0 mi South 10.4 mph - N/A   Clear
12:00 PM 86 °F - 74 °F 60% 29.86 in - SSW 6.7 mph - -  
12:40 PM 87.8 °F 90.4 °F 66.2 °F 49% 29.84 in 11.0 mi SSW 15.0 mph - N/A   Clear
1:40 PM 87.8 °F 90.4 °F 66.2 °F 49% 29.82 in 11.0 mi SSW 3.5 mph - N/A   Clear
2:44 PM 87.8 °F 89.4 °F 64.4 °F 46% 29.81 in 12.0 mi SSW 13.8 mph - N/A   Clear
3:00 PM 89 °F - 74 °F 54% 29.83 in - WSW 6.7 mph - -  
3:43 PM 87.8 °F 89.4 °F 64.4 °F 46% 29.79 in 12.0 mi SW 12.7 mph - N/A   Clear
4:41 PM 86.0 °F 87.3 °F 64.4 °F 48% 29.77 in 12.0 mi SSW 13.8 mph - N/A   Clear
5:45 PM 84.2 °F 85.6 °F 64.4 °F 51% 29.78 in 12.0 mi SW 11.5 mph - N/A   Clear
6:00 PM 87 °F - 75 °F 60% 29.81 in - West 6.7 mph - -  
6:43 PM 82.4 °F 83.9 °F 64.4 °F 54% 29.79 in 12.0 mi WSW 10.4 mph - N/A   Clear
7:42 PM 80.6 °F 82.3 °F 64.4 °F 58% 29.82 in 10.0 mi West 13.8 mph - N/A   Clear
8:44 PM 78.8 °F - 64.4 °F 61% 29.86 in 10.0 mi West 11.5 mph - N/A   Clear
9:00 PM 80 °F - 73 °F 74% 29.89 in - WNW 8.9 mph - -  
9:43 PM 77.0 °F - 64.4 °F 65% 29.88 in 8.0 mi West 9.2 mph - N/A   Clear
10:42 PM 75.2 °F - 62.6 °F 65% 29.88 in 8.0 mi West 6.9 mph - N/A   Clear
11:46 PM 73.4 °F - 62.6 °F 69% 29.86 in 8.0 mi SW 6.9 mph - N/A   Clear